Regional Weather Roundup
Issued by NWS Green Bay, WI

Home | Current Version | Previous Version | Graphics & Text | Print | Product List | Glossary Off
Versions: 1 2 3 4 5 6 7 8 9 10 11 12 13 14 15 16 17 18 19 20 21 22 23 24 25 26 27 28 29 30 31 32 33 34 35 36 37 38 39 40 41 42 43 44 45 46 47 48 49 50

000
ASUS43 KGRB 280300
RWRGRB

NORTH-CENTRAL AND NORTHEAST WISCONSIN REGIONAL WEATHER ROUNDUP
NATIONAL WEATHER SERVICE GREEN BAY WI
1000 PM CDT WED MAY 27 2015

WIZ005-009-010>012-018-019-280400-
NORTH CENTRAL WISCONSIN

CITY           SKY/WX    TMP DP  RH WIND       PRES   REMARKS
IRONWOOD       CLEAR     55  55 100 E3        29.99R
MANITOWISH WTR NOT AVBL
ARBOR VITAE    NOT AVBL
EAGLE RIVER    NOT AVBL
LAND O LAKES   NOT AVBL
RHINELANDER    CLOUDY    57  55  93 E3        30.06R
PHILLIPS       NOT AVBL
ANTIGO         NOT AVBL
TOMAHAWK       NOT AVBL
MERRILL        NOT AVBL
$$

WIZ013-073-280400-
NORTHEAST WISCONSIN

CITY           SKY/WX    TMP DP  RH WIND       PRES   REMARKS
IRON MOUNTAIN  CLOUDY    64  54  69 N6        30.01R
MARINETTE      MOCLDY    61  54  77 N3        30.03R
$$

WIZ017-030-035>037-045-280400-
CENTRAL WISCONSIN

CITY           SKY/WX    TMP DP  RH WIND       PRES   REMARKS
MEDFORD        NOT AVBL
WAUSAU         CLOUDY    59  57  93 S8        30.05R
MOSINEE        MOCLDY    61  59  94 VRB6      30.07R
MARSHFIELD     CLOUDY    59  55  87 S5        30.06F
WISC RAPIDS    LGT RAIN  68  53  58 N14G31    30.11R
STEVENS POINT  NOT AVBL
WAUPACA        NOT AVBL
SHAWANO        NOT AVBL
CLINTONVILLE   NOT AVBL
$$

WIZ038-039-048-051-280400-
FOX VALLEY

CITY           SKY/WX    TMP DP  RH WIND       PRES   REMARKS
NWS GREEN BAY  MOCLDY    69  60  73 VRB3      30.04R
APPLETON       PTCLDY    66  57  72 SW7       30.05R
OSHKOSH        PTCLDY    68  58  70 SW6       30.05R
FOND DU LAC    PTCLDY    66  58  75 SW6       30.06R
$$

WIZ022-050-052-280400-
EAST CENTRAL WISCONSIN

CITY           SKY/WX    TMP DP  RH WIND       PRES   REMARKS
STURGEON BAY   MOCLDY    59  54  82 S5        30.06R THUNDER
MANITOWOC      NOT AVBL
SHEBOYGAN      CLEAR     61  57  87 S3        30.06R
$$

LMZ563-521-522-541>543-280400-
LAKESHORE

STATION/POSITION TIME  TEMP    WIND        PRES    VSBY  WAVE
                       AIR SEA DIR/SP/G                  HT/PER
                 (UTC) (F)     (DEG/KT/KT) (MB)    (MI)  (FT/S)
SHEBOYGAN LKSHOR 0200   61     190/  8/  9 1017.8R
KEWAUNEE LKSHORE 0200          190/ 13/ 15 1016.5R
ALGOMA MARINA    0208          220/ 18/ 20   N/A
NORTHPORT PIER   0200   64     180/  3/ 10 1014.9R
N MID LAKE BUOY  0150   42 36  170/ 10/ 12 1015.8R         1/ 5
SISTER BAY LKSHO 0218   65     190/ 14/ 18   N/A
CHAMBERS ISLAND  0200   60     180/  5/ 12 1015.6R
MENOMINEE LKSHOR 0200   65     240/  8/ 12 1016.5R
$$



USA.gov is the U.S. government's official web portal to all federal, state and local government web resources and services.